Powrót do katalogu

FENGYUN 1C DEB

AktywnyPO
NORAD 35153·DEBRIS·🇨🇳 China

Wystrzelony May 10, 1999 z Taiyuan Satellite Launch Center

Loading…

Następne Przeloty (najbliższe 24 godziny)

TLE

ŚwieżeSource: Space-Track

Epoka: Sep 13, 2026, 12:19 UTC

1 35153U 99025DMH 26256.51321771  .00002341  00000-0  28542-3 0  9994
2 35153  98.8869 180.2609 0164672 303.1743  55.3760 14.75415052 12542

Śledź FENGYUN 1C DEB w czasie rzeczywistym z AllMySat

Download on the App Store